DELTA 1 DEB, 1313

Orbit data source: Space-Track

DELTA 1 DEB, 1313 is space debris in SSO originally from a launch on Fri, 22 Jan 1965 UTC launched from the Air Force Eastern Test Range (AFETR). Debris objects in space refer to the collection of defunct objects orbiting the Earth. Examples of debris include non-operational satellites, rocket bodies, and fragments generated from explosions, collisions, or faulty payload assembly.

Loading next visibility...
DELTA 1 DEB details
Identifier
1313, 1965-004D
Orbit
SSO
Last TLE update3 days ago
Origin
Flag of USGSFC (US)
ManufacturerUnknown
MissionSpacecraft
Bus & MotorUnknown
Mass~1 kg wet, ~1 kg dry
Launch date (UTC)
1965-01-22 (60 years ago)
Launch vehicleUnknown
Launch site
Air Force Eastern Test Range (AFETR)
Object type
Payload
Rocket body
Debris
Shape & HBRBox + 1 Cable, 3.5 m
Radar Cross Section6.125 m², Small (<0.1 m²)

Expand to show TLE details & history

TLE from 3 days ago
0 DELTA 1 DEB
1 01313U 65004D   25020.26422410  .00000807  00000-0  12335-2 0  9994
2 01313  96.4016 211.7265 1174126 333.6323  20.9272 12.00708863624880
Epoch: 2025-01-20T06:20Z
Definitive object data (Epoch: 2025-01-20T06:20:28.962Z)
Latitude-0.00002°
Longitude-3.28147°
Altitude813.693 km
Speed7.837 km/s
True Right ascension14h 06m 54s
True Declination0° 00' 00"
Sunlit
Object was in daylight at TLE epoch
Visualization TLE readout
Latitude-49.10268°
Longitude5.87879°
Altitude777.973 km
Speed7.879 km/s
Apparent Right ascension10h 54m 16s
Apparent Declination-60° 07' 50"
Sunlit
Object is in daylight
Visualization observer readout
Local Sidereal Time19:19:18
Azimuth220.147° SW
Elevation-51.475°
Doppler factor1
Orbital elements
Apogee altitude2,620.547 km
Perigee altitude729.466 km
Semi-major axis8,053.144 km
Eccentricity0.1174126
Inclination96.4016°
RAAN211.7265°
Arg. of periapsis333.6323°
True anomaly26.48172°
Mean anomaly20.9272°
Eccentric anomaly23.62291°
Mean motion3.00327 °/min
BSTAR0.0012335
Orbital period119.87 mins
Loading maneuver chart data...
Loading historical data...
Loading historical data...
Loading historical data...
Loading historical data...
Loading historical data...
Loading historical data...
Loading historical data...
Other satellites on launch #4 in the year 1965 (1965-01-22 UTC)

DELTA 1 DEB Visibility forecast

Observer location: undefined°, undefined

Span
Click to sort rows by Start time (UTC) header in descending order
Start Az.
Max El. time (UTC)
Max El. Az.
Max El.
End time (UTC)
End Az.
20 mins2025-01-23 22:58:27.811Z34.657° NE2025-01-23 23:08:27.811Z82.596° E22.182°2025-01-23 23:18:27.811Z128.977° SE
26 mins2025-01-24 00:55:27.811Z12.58° NNE2025-01-24 01:08:27.811Z120.747° SE44.588°2025-01-24 01:21:27.811Z188.103° SSW
21 mins2025-01-24 02:55:27.811Z351.959° N2025-01-24 03:05:27.811Z295.371° NW30.444°2025-01-24 03:16:27.811Z242.44° WSW
8 mins2025-01-24 10:31:27.811Z74.962° E2025-01-24 10:34:27.811Z50.528° ENE16.018°2025-01-24 10:39:27.811Z17.482° NNE
15 mins2025-01-24 12:25:27.811Z162.435° S2025-01-24 12:30:27.811Z124.875° SE44.398°2025-01-24 12:40:27.811Z351.237° N
8 mins2025-01-24 14:28:27.811Z258.367° W2025-01-24 14:31:27.811Z284.887° WNW15.43°2025-01-24 14:36:27.811Z319.769° NNW
|